Regional Weather Roundup
Issued by NWS

Home | Current Version | Previous Version | Graphics & Text | Print | Product List | Glossary On
Versions: 1 2 3 4 5 6 7 8 9 10 11 12 13 14 15 16 17 18 19 20 21 22 23 24 25 26 27 28 29 30 31 32 33 34 35 36 37 38 39 40 41 42 43 44 45 46 47 48 49 50
000
ASUS43 KLOT 261158
RWRIL

ILLINOIS REGIONAL WEATHER ROUNDUP
NATIONAL WEATHER SERVICE CHICAGO/ROMEOVILLE IL
700 AM CDT SAT JUL 26 2014

NOTE: "FAIR" INDICATES FEW OR NO CLOUDS BELOW 12,000 FEET WITH NO
SIGNIFICANT WEATHER AND/OR OBSTRUCTIONS TO VISIBILITY.

* THESE STATIONS ARE NOT UNDER NWS QUALITY CONTROL. THEY ALSO MAY NOT
  REPORT WEATHER SUCH AS PRECIPITATION OR FOG.

ILZ001-002-007-009-015-016-024-261300-
NORTHWEST ILLINOIS

CITY           SKY/WX    TMP DP  RH WIND       PRES   REMARKS
MOLINE         CLOUDY    68  63  84 E5        29.82S
6HR MIN TEMP:  65; 6HR MAX TEMP:  68;

$$

ILZ003-004-008-010-011-017-018-261300-
NORTH CENTRAL ILLINOIS

CITY           SKY/WX    TMP DP  RH WIND       PRES   REMARKS
ROCKFORD       NOT AVBL
$$

ILZ005-006-012>014-019>023-261300-
NORTHEAST ILLINOIS

CITY           SKY/WX    TMP DP  RH WIND       PRES   REMARKS
CHICAGO-OHARE  CLOUDY    70  59  68 S7        29.84F
6HR MIN TEMP:  68; 6HR MAX TEMP:  70;

CHICAGO-MIDWAY CLOUDY    71  62  73 SW8       29.85S
6HR MIN TEMP:  70; 6HR MAX TEMP:  72;

AURORA         CLOUDY    68  62  81 S6        29.86S
6HR MIN TEMP:  67; 6HR MAX TEMP:  68; 6HR PCP: TRACE;

WAUKEGAN       CLOUDY    66  60  81 CALM      29.85S
6HR MIN TEMP:  61; 6HR MAX TEMP:  67;

DUPAGE AIRPORT CLOUDY    69  62  78 S7        29.84S
6HR MIN TEMP:  66; 6HR MAX TEMP:  69; 6HR PCP: TRACE;

WHEELING       CLOUDY    71  61  70 S7        29.85F
6HR MIN TEMP:  68; 6HR MAX TEMP:  71;

NORTHERLY ISL    N/A     70  60  70 S7          N/A
$$

LMZ740>746-261300-
SOUTHERN LAKE MICHIGAN

STATION/POSITION SKY/WX   TEMP    WIND        PRES    VSBY  WAVE
                          AIR SEA DIR/SP/G                  HT/PER
                          (F)     (DEG/KT/KT) (MB)    (MI)  (FT/S)
SOUTHERN BUOY              63 61  160/  6/  8 1011.2F         1
WAUKEGAN HARBOR            65     180/  5/  6   N/A
HARRISON CRIB              68     170/  9/ 10   N/A
BURNHAM HARBOR             69     190/  3/  9   N/A
CALUMET HARBOR             69     180/  6/  8 1009.7F
MICHIGAN CITY              65     150/  6/ 10   N/A
MICHIGAN CITY 6N           66 68  180/  6/  8   N/A           1
ST. JOSEPH                 65 66  120/  8/  8   N/A           1/ 2
$$

ILZ025>027-034>036-040-047-049-050-058-095>099-261300-
WEST-CENTRAL ILLINOIS

CITY           SKY/WX    TMP DP  RH WIND       PRES   REMARKS
QUINCY         MOSUNNY   74  70  87 SW9       29.83S
$$

ILZ028>032-037-038-041>044-048-051>054-059>061-261300-
CENTRAL ILLINOIS

CITY           SKY/WX    TMP DP  RH WIND       PRES   REMARKS
PEORIA         NOT AVBL
SPRINGFIELD    MOSUNNY   71  66  84 SW8       29.86S
6HR MIN TEMP:  70; 6HR MAX TEMP:  71;

TAYLORVILLE    NOT AVBL
$$

ILZ033-039-045-046-055>057-062-063-261300-
EAST-CENTRAL ILLINOIS

CITY           SKY/WX    TMP DP  RH WIND       PRES   REMARKS
CHAMPAIGN      MOSUNNY   68  64  87 S8        29.88R
DANVILLE*        N/A    N/A N/A N/A S7          N/A
MATTOON        MOSUNNY   68  63  84 S12       29.88S
$$

ILZ079-100>102-261300-
SOUTHWEST ILLINOIS

CITY           SKY/WX    TMP DP  RH WIND       PRES   REMARKS
ALTON          PTSUNNY   68  68 100 SE6       29.90R
CAHOKIA*       PTSUNNY   70  66  87 S5        29.89S
$$

ILZ064>066-069>071-074>076-080>082-084>086-088>090-092>094-261300-
SOUTH-CENTRAL ILLINOIS

CITY           SKY/WX    TMP DP  RH WIND       PRES   REMARKS
CARBONDALE     MOSUNNY   69  65  86 S8        29.95R
6HR MIN TEMP:  65; 6HR MAX TEMP:  69;

$$

ILZ067-068-072-073-078-083-087-091-261300-
SOUTHEAST ILLINOIS

CITY           SKY/WX    TMP DP  RH WIND       PRES   REMARKS
LAWRENCEVILLE  MOSUNNY   67  63  87 S5        29.93S FOG
$$

ABBREVIATIONS USED IN REMARKS
   TC - TEMPERATURE IN CELSIUS
  WCI - WIND CHILL INDEX
   HX - HEAT INDEX
  VSB - VISIBILITY
$$




USA.gov is the U.S. government's official web portal to all federal, state and local government web resources and services.